Weather Roundup
Issued by NWS

Home | Current Version | Previous Version | Text Only | Print | Product List | Glossary On
Versions: 1 2 3 4 5 6 7 8 9 10 11 12 13 14 15 16 17 18 19 20 21 22 23 24 25 26 27 28 29 30 31 32 33 34 35 36 37 38 39 40 41 42 43 44 45 46 47 48 49 50
000
NZUS93 KARX 270759
HRRWXR

CURRENT HOURLY OBSERVATIONS ACROSS
MUCH OF THE UPPER MISSISSIPPI VALLEY
NATIONAL WEATHER SERVICE LA CROSSE WI
300 AM CDT THU APR 27 2017


...SOUTHEAST MINNESOTA...


CITY           SKY/WX    TMP DP  RH WIND       PRES   REMARKS
ROCHESTER      CLOUDY    35  33  92 NW15      29.48F WCI  25
ROCHESTER/MAYO CLOUDY    35  35 100 NW10      29.50F WCI  27
WINONA         CLOUDY    36  34  93 N7        29.49F WCI  30
AUSTIN         CLOUDY    34  32  93 NW13G18   29.51F WCI  25
ALBERT LEA     CLOUDY    34  30  86 NW10      29.51F FOG     WCI  26
DODGE CENTER   CLOUDY    34  34 100 NW12      29.50F FOG     WCI  25
PRESTON        CLOUDY    35  32  90 NW10      29.48F WCI  27
OWATONNA       DRIZZLE   34  32  93 NW16      29.52F WCI  23
FARIBAULT      LGT RAIN  34  34 100 NW7       29.54F WCI  28
$$

...ELSEWHERE IN MINNESOTA...


CITY           SKY/WX    TMP DP  RH WIND       PRES   REMARKS
MINNEAPOLIS    CLOUDY    35  30  82 N7        29.56S WCI  29
INTNL FALLS    CLOUDY    22  14  71 NE15      29.66F WCI   9
DULUTH         FRZ DRZL  24  22  91 N9        29.54F WCI  14
RED WING       CLOUDY    37  30  75 N7        29.50F WCI  32
REDWOOD FALLS  CLOUDY    31  28  89 NW12      29.59F WCI  22
MANKATO        MIX PCPN  33  31  92 NW10      29.57F WCI  25
WORTHINGTON    CLOUDY    28  26  92 NW17G23   29.60F WCI  16
FAIRMONT       CLOUDY    31  29  92 NW17      29.58F WCI  19
$$

...SOUTHWEST WISCONSIN...


CITY           SKY/WX    TMP DP  RH WIND       PRES   REMARKS
LA CROSSE      CLOUDY    41  36  82 NW12      29.46F
PRAIRIE DU CHI RAIN      40  37  89 NW9       29.46F WCI  34
BOSCOBEL       LGT RAIN  42  39  89 NW6       29.44F
LONE ROCK      NOT AVBL
PLATTEVILLE    CLOUDY    41  41 100 NW12      29.41F
FORT MC COY    LGT RAIN  38  37  97 NW9       29.47F WCI  32
CAMP DOUGLAS   DRIZZLE   39  37  93 NW10      29.42F WCI  32
MAUSTON-NEW LI DRIZZLE   40  39  95 NW9       29.42F WCI  34
VIROQUA        CLOUDY    37  37 100 NW10G16   29.44F WCI  30
WIS DELLS      DRIZZLE   40  39  96 NW5       29.41F
$$

...ELSEWHERE IN WISCONSIN...


CITY           SKY/WX    TMP DP  RH WIND       PRES   REMARKS
MILWAUKEE      LGT RAIN  55  54  96 NE6       29.34F FOG
MADISON        RAIN      44  42  93 N10       29.37F FOG
GREEN BAY      RAIN      50  50 100 W5        29.38F FOG
EAU CLAIRE     NOT AVBL
BLACK RVR FLS  CLOUDY    37  36  96 N7        29.45F WCI  32
MEDFORD        CLOUDY    32  31  97 N12       29.44F WCI  23
WAUSAU         CLOUDY    36  34  92 N8        29.41F WCI  30
WIS RAPIDS     CLOUDY    41  38  89 N9        29.42F
MARSHFIELD     LGT RAIN  37  35  92 N10       29.41F WCI  30
RICE LAKE      CLOUDY    32  29  90 N7        29.54S WCI  26
$$

...NORTHEAST IOWA...


CITY           SKY/WX    TMP DP  RH WIND       PRES   REMARKS
WATERLOO       CLOUDY    38  32  79 NW12      29.50F WCI  30
DUBUQUE        RAIN      39  38  96 N13       29.43F FOG     WCI  31
DECORAH        CLOUDY    37  36  93 N14       29.45F WCI  29
MASON CITY     CLOUDY    34  32  92 NW14      29.56F WCI  25
CHARLES CITY   CLOUDY    37  36  93 NW16      29.51S WCI  28
OELWEIN        CLOUDY    39  37  93 NW16      29.49F WCI  30
$$

...ELSEWHERE IN IOWA...


CITY           SKY/WX    TMP DP  RH WIND       PRES   REMARKS
DES MOINES     CLOUDY    39  33  79 NW14      29.58R WCI  31
IOWA CITY      LGT RAIN  41  38  89 NW10      29.52R
FORT DODGE     CLOUDY    34  27  75 NW8       29.59F WCI  27
MARSHALLTOWN   CLOUDY    36  33  89 NW18      29.54F WCI  26
CEDAR RAPIDS   LGT RAIN  38  37  97 NW20      29.48S WCI  28
$$

...NORTHERN ILLINOIS...


CITY           SKY/WX    TMP DP  RH WIND       PRES   REMARKS
CHICAGO-OHARE  LGT RAIN  60  57  89 S12       29.35F
CHICAGO-MIDWAY LGT RAIN  61  59  93 S13       29.36F
MOLINE         RAIN      43  40  89 NW13      29.46F FOG
ROCKFORD       LGT RAIN  50  47  89 NW10      29.38F FOG
PEORIA         RAIN      46  45  96 NW14      29.43R FOG
$$

NOTE: "FAIR" INDICATES FEW OR NO CLOUDS BELOW 12,000 FEET WITH NO
SIGNIFICANT WEATHER AND/OR OBSTRUCTIONS TO VISIBILITY. WIND
SPEEDS ARE IN MILES-PER-HOUR.




USA.gov is the U.S. government's official web portal to all federal, state and local government web resources and services.